Total_Precipitation_Accumulation
0.38 0.22 0.24 0.23 0.20 0.21 0.22 0.27 0.28 0.28 0.25 0.22 0.21 0.24 0.28 0.22 0.17 0.15 0.15 0.16 0.20 0.27 0.33 0.35 0.37 0.44 0.48 0.42 0.36 0.33 0.33 0.37 0.44 0.52 0.60 0.64 0.66 0.75 0.89 0.95 1.04 1.00 0.95
0.45 0.25 0.25 0.24 0.23 0.23 0.22 0.24 0.28 0.27 0.26 0.22 0.20 0.22 0.27 0.20 0.16 0.15 0.16 0.19 0.22 0.26 0.27 0.29 0.34 0.37 0.35 0.31 0.31 0.29 0.29 0.34 0.49 0.68 0.85 0.86 0.88 0.92 1.03 1.14 1.29 1.30 1.07
0.58 0.40 0.29 0.26 0.23 0.24 0.23 0.25 0.25 0.25 0.28 0.27 0.21 0.19 0.19 0.16 0.14 0.14 0.15 0.19 0.26 0.29 0.28 0.27 0.28 0.27 0.26 0.25 0.26 0.28 0.32 0.41 0.66 0.96 1.34 1.53 1.32 1.24 1.21 1.20 1.18 1.07 1.13
0.53 0.50 0.36 0.32 0.28 0.24 0.25 0.27 0.29 0.26 0.24 0.23 0.21 0.19 0.16 0.16 0.16 0.17 0.18 0.21 0.30 0.35 0.35 0.30 0.29 0.26 0.24 0.25 0.26 0.30 0.37 0.51 0.82 1.16 1.83 1.95 1.90 1.88 1.47 1.20 1.06 1.02 1.22
0.46 0.45 0.42 0.36 0.32 0.29 0.28 0.31 0.32 0.33 0.27 0.26 0.25 0.23 0.23 0.21 0.21 0.24 0.28 0.32 0.35 0.37 0.39 0.36 0.33 0.33 0.28 0.25 0.27 0.32 0.40 0.59 0.99 1.38 1.85 2.35 2.70 2.35 1.78 1.41 1.21 1.16 1.29
0.50 0.47 0.43 0.41 0.40 0.40 0.39 0.39 0.38 0.37 0.33 0.32 0.31 0.28 0.27 0.28 0.30 0.34 0.42 0.47 0.46 0.45 0.48 0.47 0.44 0.39 0.32 0.30 0.31 0.37 0.50 0.70 0.96 1.35 1.89 2.55 2.52 2.23 1.91 1.68 1.45 1.37 1.36
0.54 0.57 0.47 0.49 0.49 0.51 0.53 0.49 0.47 0.43 0.42 0.42 0.41 0.36 0.33 0.35 0.38 0.42 0.50 0.53 0.53 0.55 0.56 0.52 0.44 0.37 0.33 0.33 0.37 0.43 0.58 0.77 0.96 1.54 2.02 2.40 2.29 2.07 1.97 1.85 1.73 1.59 1.47
0.56 0.54 0.55 0.54 0.57 0.57 0.62 0.67 0.64 0.58 0.55 0.54 0.52 0.48 0.42 0.40 0.41 0.48 0.54 0.56 0.55 0.53 0.51 0.49 0.46 0.41 0.39 0.39 0.41 0.52 0.63 0.67 0.77 1.37 1.89 2.06 1.81 1.85 2.00 1.86 1.76 1.63 1.52
0.69 0.68 0.74 0.78 0.80 0.81 0.82 0.82 0.82 0.75 0.70 0.66 0.60 0.52 0.47 0.46 0.48 0.52 0.60 0.64 0.62 0.55 0.50 0.48 0.47 0.43 0.42 0.41 0.43 0.51 0.58 0.70 0.78 1.12 1.67 2.06 1.61 1.73 2.02 1.91 1.73 1.64 1.56
1.16 1.14 1.16 1.18 1.13 1.01 0.94 0.94 0.91 0.84 0.77 0.71 0.62 0.56 0.57 0.60 0.67 0.74 0.66 0.67 0.66 0.63 0.59 0.58 0.53 0.47 0.47 0.46 0.48 0.54 0.61 0.62 0.64 1.00 1.57 1.67 1.59 1.92 2.17 1.99 1.77 1.72 1.57
1.78 1.74 1.62 1.55 1.40 1.37 1.26 1.05 1.07 0.99 0.91 0.83 0.78 0.72 0.74 0.82 0.99 1.08 0.89 0.92 0.87 0.82 0.79 0.80 0.76 0.71 0.65 0.59 0.62 0.69 0.69 0.60 0.79 1.16 1.75 1.84 2.03 2.23 2.42 2.27 2.00 1.86 1.76
2.24 2.15 1.89 1.94 1.90 1.71 1.56 1.49 1.46 1.28 1.22 1.12 1.18 1.07 1.12 1.44 1.57 1.38 1.39 1.31 1.27 1.19 1.07 1.05 1.03 0.91 0.80 0.77 0.90 0.94 0.72 0.73 0.91 1.19 1.54 1.83 2.11 2.40 2.51 2.34 2.11 1.98 2.00
2.22 2.08 2.17 2.36 2.25 2.23 2.31 2.22 2.00 1.92 1.86 1.68 1.68 1.57 1.66 1.68 1.59 1.60 1.72 1.66 1.56 1.47 1.47 1.50 1.33 1.12 1.14 1.21 1.22 1.11 0.98 1.02 1.05 1.20 1.51 1.81 2.07 2.49 2.67 2.47 2.26 2.19 2.20
2.47 2.25 2.32 2.36 2.38 2.52 2.59 2.61 2.58 2.50 2.43 2.26 2.15 1.89 2.02 2.09 2.10 2.07 2.21 2.20 2.18 2.16 2.17 2.06 1.86 1.69 1.55 1.52 1.48 1.46 1.34 1.28 1.38 1.57 1.75 1.81 1.97 2.35 2.67 2.67 2.46 2.34 2.27
3.08 2.80 2.66 2.78 2.68 2.64 2.83 2.93 2.74 2.88 2.83 2.87 2.77 2.44 2.45 2.47 2.46 2.63 2.60 2.68 2.60 2.74 2.66 2.46 2.20 2.09 1.97 1.73 1.61 1.63 1.62 1.59 1.64 1.70 1.87 1.96 1.99 2.22 2.59 2.81 2.72 2.59 2.61
3.53 3.32 3.04 2.97 3.01 2.89 3.03 3.23 3.12 2.97 3.07 3.10 3.15 2.93 2.87 2.90 2.91 2.96 2.99 3.04 2.84 2.81 2.83 2.73 2.44 2.32 2.19 1.97 1.72 1.64 1.65 1.81 1.84 1.75 1.92 2.05 2.01 2.06 2.38 2.81 3.03 3.14 3.22
3.71 3.44 3.37 3.17 3.39 3.52 3.71 3.65 3.59 3.57 3.58 3.53 3.47 3.47 3.31 3.27 3.33 3.23 3.34 3.41 3.25 3.13 3.09 3.02 2.88 2.62 2.44 2.33 2.18 2.02 1.91 1.90 2.03 2.12 2.13 2.22 2.28 2.25 2.40 2.66 2.95 3.17 3.32
3.64 3.63 3.73 3.50 3.56 3.78 3.78 3.74 3.83 4.02 4.07 3.95 3.82 3.84 3.71 3.72 3.80 3.90 3.72 3.53 3.42 3.33 3.32 3.44 3.24 2.90 2.79 2.81 2.67 2.34 2.05 2.08 2.18 2.22 2.23 2.31 2.49 2.42 2.47 2.46 2.59 2.85 3.11
3.56 3.54 3.74 3.91 3.73 3.90 3.99 4.02 4.20 4.38 4.52 4.43 4.29 4.17 4.14 4.14 4.07 4.19 4.08 3.88 3.72 3.63 3.61 3.37 3.34 3.22 3.18 3.08 2.69 2.47 2.17 2.08 2.15 2.13 2.18 2.26 2.47 2.59 2.62 2.41 2.50 2.81 3.02
3.63 3.69 3.78 4.11 4.11 4.37 4.44 4.26 4.38 4.46 4.59 4.61 4.64 4.58 4.63 4.66 4.53 4.49 4.31 4.14 4.05 3.95 3.84 3.67 3.63 3.56 3.35 3.19 2.75 2.51 2.32 2.10 2.07 2.09 2.09 2.16 2.22 2.26 2.36 2.41 2.45 2.39 2.63
3.89 4.00 3.98 4.11 4.35 4.52 4.66 4.62 4.76 4.76 4.73 4.89 5.08 5.07 5.17 5.22 5.03 4.95 4.80 4.63 4.37 4.10 3.98 3.90 3.73 3.57 3.30 3.19 3.03 2.74 2.34 2.03 2.03 2.01 1.94 2.02 2.07 2.04 2.10 2.19 2.38 2.33 2.23
4.03 4.16 4.35 4.47 4.49 4.60 5.04 5.42 5.71 6.01 6.04 5.97 6.07 6.07 5.89 5.75 5.66 5.46 5.38 5.12 4.72 4.43 4.12 3.88 3.69 3.42 3.17 3.16 3.18 3.22 2.76 2.33 1.89 1.64 1.69 1.74 1.74 1.76 1.84 1.96 2.03 2.10 2.04
3.81 4.03 4.23 4.51 4.87 5.35 5.93 6.34 6.61 6.92 7.04 6.83 6.55 6.36 6.10 5.88 5.73 5.37 5.15 5.02 4.72 4.26 3.97 3.78 3.58 3.37 3.14 3.05 3.03 3.26 3.04 2.60 2.15 1.85 1.65 1.55 1.57 1.69 1.75 1.87 1.91 1.86 1.78
3.37 3.72 4.10 4.45 5.06 5.94 6.60 7.00 7.35 7.43 7.42 7.31 7.03 6.57 6.04 5.67 5.34 5.00 4.73 4.45 4.18 3.84 3.58 3.37 3.28 3.22 3.12 2.94 2.90 2.76 2.56 2.40 2.39 2.14 1.87 1.71 1.66 1.68 1.65 1.61 1.64 1.69 1.70
3.12 3.48 3.92 4.33 5.00 5.69 6.33 6.89 7.32 7.46 7.39 7.18 6.74 6.17 5.54 5.04 4.61 4.22 3.96 3.71 3.47 3.20 2.98 2.79 2.74 2.84 2.88 2.80 2.76 2.72 2.60 2.50 2.38 2.22 2.06 1.99 1.94 1.81 1.67 1.59 1.56 1.56 1.54
2.72 3.06 3.52 3.95 4.49 5.12 5.59 6.14 6.47 6.63 6.50 6.11 5.60 4.99 4.56 4.22 3.89 3.51 3.22 2.99 2.74 2.51 2.36 2.27 2.22 2.26 2.40 2.47 2.51 2.51 2.50 2.57 2.52 2.47 2.31 2.19 2.12 1.97 1.83 1.70 1.62 1.58 1.52